Find Starlink 35346

NORAD ID: 66179 Int'l Des: 2025-243 Owner: SPXS Country: US Constellation: starlink operational
LEOCIRCULAR

現在のビュー

3D地球を読み込み中...

About Starlink 35346

Starlink 35346 (NORAD 66179) is a starlink constellation satellite (v2 mini) launched Oct 26, 2025 by SPXS of US. It operates in LEO, CIRCULAR orbit with a mass of 575.00 kg.

次回通過

Passes for default location (London). Set your location on the main map for personalized predictions.

高度履歴

Loading altitude history...

軌道要素

1 66179U 25243C 26263.70244677 .00023614 00000-0 70768-3 0 9998
2 66179 53.1592 56.4216 0001349 100.6842 259.4313 15.34406593 50550
Epoch: Sep 20, 2026 • Age: 24 hours

現在のステータス

高度 466.2 km
遠地点 / 近地点 N/A
速度 7.64 km/s
衛星直下点 43.11°N, 152.93°W
打ち上げ日 Oct 26, 2025
運用期間 0.9 years
タイプ internet

技術仕様

分類 Payload
質量 575.00 kg
乾燥質量 530.00 kg
長さ 0.30 m
スパン 29.00 m
形状 ? Box + pan
製造者 SPXS
バスタイプ Starlink V2MO
フェーズステータス In Orbit
所有者/国 SPXS/US

Most Searched